[[{"header":{"parameterUnit":"m.s-1","parameterCategory":1,"la1":30.2991,"la2":30.254,"lo1":-89.0895,"lo2":-89.0444,"dy":0.0017,"dx":0.0017,"nx":28,"ny":28,"refTime":"2025-01-30T09:00:00:Z","depth":0,"parameterNumber":2,"parameterNumberName":"U-component_of_WINDS"},"data":[0,0,0,0,0,0,0,0,0,0,0,0,0,0,0,0,0,0,0,0,0,0,0,0,0,0,0,0,0,0,0,0,0,0,0,0,0,0,0,0,0,0,0,0,0,0,0,0,0,0,0,0,0,0,0,0,0,0,1.7803,1.7803,0,1.7814,1.7814,1.7814,1.7778,1.7777,1.7776,1.7775,1.7787,1.7788,1.7789,0,0,0,0,0,0,0,0,0,0,0,0,0,1.7752,1.7753,1.7803,1.7803,1.7803,1.7814,1.7814,1.7814,1.7778,1.7777,1.7775,1.7774,1.7786,1.7788,1.7789,0,0,0,0,0,0,0,0,0,0,0,0,0,1.777,1.7753,1.7803,1.7786,1.7785,1.7814,1.7814,1.7814,1.7778,1.7777,1.7775,1.7774,1.7786,1.7788,1.7789,1.7835,0,0,1.7796,1.7796,0,0,0,0,0,0,0,0,1.7769,1.7772,1.7789,1.7787,1.7786,1.7793,1.78,1.7821,1.7779,1.7781,1.7775,1.7773,1.779,1.7792,1.7797,1.7835,1.7836,1.7796,1.7797,1.7798,1.7798,0,0,0,0,0,0,0,1.7767,1.7771,1.7807,1.7789,1.7787,1.7779,1.778,1.7804,1.7795,1.7781,1.7778,1.778,1.7789,1.7795,1.7797,1.7836,1.7796,1.7798,1.7799,1.78,1.7914,1.7916,0,0,0,0,0,0,1.7768,1.777,1.7807,1.7807,1.7773,1.7781,1.7782,1.7792,1.7794,1.7793,1.7781,1.7778,1.7793,1.7795,1.7798,1.7852,1.7798,1.78,1.7801,1.7912,1.7915,1.7917,0,0,0,0,0,0,1.7767,1.7772,1.7806,1.7788,1.7792,1.7784,1.7796,1.7793,1.78,1.7795,1.7793,1.7789,1.7792,1.7795,1.7826,1.7852,1.7801,1.7802,1.791,1.7913,1.7916,1.7961,0,0,0,0,0,0,1.7766,1.7772,1.7788,1.7789,1.7793,1.7834,1.7797,1.7795,1.7803,1.7799,1.7802,1.7801,1.7791,1.7824,1.7828,1.7854,1.7804,1.7908,1.7911,1.7915,1.7957,1.7965,1.7972,0,0,0,0,0,1.7764,1.78,1.7789,1.7794,1.7813,1.7836,1.7838,1.7826,1.7805,1.7823,1.782,1.7801,1.7848,1.7827,1.7832,1.7859,1.7906,1.791,1.7914,1.7954,1.7964,1.7972,0,0,0,0,0,0,1.7803,1.78,1.7788,1.7825,1.7831,1.783,1.7851,1.7836,1.7848,1.7844,1.7828,1.7829,1.7864,1.7864,1.784,1.7904,1.7874,1.7879,1.7902,1.7911,1.7918,1.7918,1.7806,0,0,0,0,0,1.7815,1.7834,1.783,1.7863,1.7867,1.7859,1.7868,1.7858,1.7864,1.7866,1.7865,1.7872,1.7889,1.79,1.7915,1.7957,1.7958,1.7978,1.7985,1.7991,1.7996,1.8021,1.803,1.793,1.793,1.793,0,0,1.7842,1.7843,1.7855,1.7871,1.7875,1.7895,1.7861,1.7883,1.7898,1.7869,1.79,1.79,1.7906,1.7944,1.796,1.7945,1.8024,1.7997,1.8001,1.8003,1.8026,1.8036,1.8044,1.7933,1.7932,1.7932,0,0,1.7901,1.7903,1.7931,1.7936,1.7942,1.7936,1.7944,1.7945,1.7944,1.7974,1.7954,1.7972,1.8,1.8006,1.8013,1.8077,1.806,1.8082,1.812,1.8144,1.8152,1.8159,1.8183,1.8192,1.8087,1.8087,1.8087,0,1.7933,1.7962,1.7948,1.7972,1.7981,1.7956,1.7986,1.7991,1.8002,1.8008,1.7991,1.8028,1.803,1.807,1.8086,1.8092,1.8101,1.8082,1.8152,1.8159,1.8165,1.8188,1.8197,1.8089,1.8089,1.8089,1.8089,0,1.8002,1.8023,1.8045,1.8057,1.8068,1.8095,1.8086,1.8099,1.8088,1.8085,1.8117,1.8119,1.8135,1.8144,1.8133,1.8183,1.8173,1.8154,1.8124,1.8177,1.8199,1.8207,1.8093,1.8092,1.8092,1.8091,0,0,1.8085,1.809,1.8098,1.8104,1.811,1.8126,1.8152,1.8168,1.818,1.8189,1.8212,1.8237,1.8221,1.8228,1.8219,1.824,1.8292,1.8218,1.8218,1.8233,1.8349,1.8364,1.8374,1.8281,1.8283,1.8284,1.8349,0,1.8144,1.8189,1.8178,1.8223,1.8243,1.8221,1.8244,1.8251,1.8249,1.8266,1.8264,1.8283,1.8258,1.8263,1.8283,1.8282,1.8315,1.8277,1.8303,1.8304,1.8303,1.8385,1.8401,1.8462,1.8357,1.8358,1.8359,0,1.8218,1.8231,1.8278,1.8283,1.8291,1.8312,1.8327,1.8343,1.8351,1.8348,1.8358,1.8344,1.8372,1.8341,1.838,1.8354,1.8364,1.8365,1.8367,1.837,1.8336,1.8391,1.8481,1.8491,1.8372,1.8371,1.837,0,1.8276,1.8304,1.8337,1.8342,1.8348,1.8364,1.8367,1.8373,1.8384,1.8397,1.8404,1.842,1.8429,1.8443,1.8434,1.8413,1.8475,1.8443,1.8474,1.8475,1.8489,1.8488,1.8583,1.8494,1.8494,1.8494,1.8493,0,1.8343,1.8374,1.8363,1.8383,1.8417,1.8405,1.8439,1.8439,1.8445,1.8466,1.8448,1.8467,1.8455,1.8474,1.8468,1.8502,1.8506,1.8505,1.8503,1.8507,1.8508,1.8514,1.851,1.8496,1.8495,1.8495,1.8495,0,1.8413,1.8407,1.8441,1.8445,1.8446,1.8471,1.8474,1.8494,1.8491,1.8517,1.8523,1.8519,1.854,1.8534,1.8557,1.8553,1.8596,1.8588,1.8594,1.8592,1.8625,1.8622,1.8727,1.8741,1.8643,1.8643,1.8644,0,1.8457,1.848,1.8486,1.8499,1.8504,1.8524,1.8535,1.8525,1.8538,1.8549,1.8568,1.8588,1.8604,1.864,1.864,1.8658,1.8651,1.8687,1.8654,1.8658,1.8653,1.8653,1.8656,1.8694,1.8695,1.8696,1.8696,0,1.8536,1.8533,1.855,1.8567,1.8581,1.8594,1.8605,1.8616,1.8607,1.8622,1.8645,1.8657,1.8682,1.8703,1.872,1.8724,1.8709,1.8707,1.8715,1.872,1.8723,1.8724,1.8613,1.8705,1.8704,1.8703,1.8703,1.8702,1.8595,1.8616,1.8624,1.8644,1.8652,1.8663,1.8682,1.8682,1.87,1.872,1.8713,1.8739,1.8748,1.8769,1.8776,1.8797,1.8783,1.8795,1.8798,1.8802,1.8807,1.8719,1.88,1.8799,1.8799,1.8799,1.8799,0,1.8675,1.868,1.8698,1.8715,1.8732,1.8717,1.8729,1.8744,1.8767,1.8777,1.8793,1.882,1.8841,1.8843,1.8862,1.8879,1.8873,1.8885,1.8884,1.8886,1.8817,1.8808,1.889,1.889,1.889,1.889,1.889,1.889,1.8719,1.8753,1.875,1.8788,1.8793,1.8819,1.8827,1.8838,1.8846,1.8877,1.8894,1.8895,1.8903,1.8923,1.8942,1.8942,1.8951,1.8966,1.8963,1.8899,1.889,1.8882,1.8873,1.8967,1.8967,1.903,1.9031,1.9031]},{"header":{"parameterUnit":"m.s-1","parameterCategory":1,"la1":30.2991,"la2":30.254,"lo1":-89.0895,"lo2":-89.0444,"dy":0.0017,"dx":0.0017,"nx":28,"ny":28,"refTime":"2025-01-30T09:00:00:Z","depth":0,"parameterNumber":3,"parameterNumberName":"V-component_of_WINDS"},"data":[0,0,0,0,0,0,0,0,0,0,0,0,0,0,0,0,0,0,0,0,0,0,0,0,0,0,0,0,0,0,0,0,0,0,0,0,0,0,0,0,0,0,0,0,0,0,0,0,0,0,0,0,0,0,0,0,0,0,-2.6675,-2.6675,0,-2.6701,-2.6702,-2.6702,-2.6689,-2.6689,-2.6688,-2.6687,-2.6715,-2.6716,-2.6717,0,0,0,0,0,0,0,0,0,0,0,0,0,-2.6613,-2.6614,-2.6674,-2.6675,-2.6675,-2.6701,-2.6702,-2.6702,-2.669,-2.6689,-2.6688,-2.6687,-2.6714,-2.6716,-2.6718,0,0,0,0,0,0,0,0,0,0,0,0,0,-2.664,-2.6614,-2.6674,-2.6672,-2.6672,-2.6701,-2.6702,-2.6702,-2.669,-2.6689,-2.6688,-2.6687,-2.6714,-2.6716,-2.6718,-2.6751,0,0,-2.6724,-2.6725,0,0,0,0,0,0,0,0,-2.6638,-2.6642,-2.6672,-2.6672,-2.6672,-2.6691,-2.669,-2.6718,-2.669,-2.6683,-2.6687,-2.6686,-2.6708,-2.671,-2.6717,-2.6752,-2.6753,-2.6724,-2.6725,-2.6726,-2.6727,0,0,0,0,0,0,0,-2.6636,-2.6641,-2.6685,-2.6673,-2.6673,-2.667,-2.6672,-2.6695,-2.6701,-2.6684,-2.6683,-2.6686,-2.6708,-2.6715,-2.6718,-2.6754,-2.6724,-2.6726,-2.6727,-2.6728,-2.6818,-2.6819,0,0,0,0,0,0,-2.6634,-2.6639,-2.6684,-2.6686,-2.6652,-2.6672,-2.6675,-2.6686,-2.67,-2.6702,-2.6687,-2.6685,-2.6712,-2.6716,-2.6719,-2.6759,-2.6726,-2.6728,-2.6729,-2.6817,-2.6818,-2.682,0,0,0,0,0,0,-2.6633,-2.6638,-2.6683,-2.6662,-2.6668,-2.6674,-2.6687,-2.6687,-2.6695,-2.6703,-2.6704,-2.6694,-2.6712,-2.6716,-2.6743,-2.676,-2.6729,-2.6731,-2.6816,-2.6817,-2.6819,-2.684,0,0,0,0,0,0,-2.6631,-2.6638,-2.6651,-2.6663,-2.6669,-2.6707,-2.6688,-2.6688,-2.6699,-2.6697,-2.671,-2.6711,-2.6711,-2.674,-2.6745,-2.6762,-2.6733,-2.6814,-2.6816,-2.6818,-2.6838,-2.6842,-2.6846,0,0,0,0,0,-2.6629,-2.6655,-2.6651,-2.6657,-2.6685,-2.6708,-2.6711,-2.6711,-2.67,-2.6713,-2.6718,-2.6711,-2.6757,-2.6743,-2.6749,-2.6767,-2.6813,-2.6816,-2.6818,-2.6836,-2.6841,-2.6846,0,0,0,0,0,0,-2.6644,-2.6657,-2.6652,-2.6683,-2.6695,-2.6706,-2.6722,-2.6717,-2.6732,-2.673,-2.6729,-2.6732,-2.676,-2.6766,-2.675,-2.68,-2.6783,-2.6787,-2.6795,-2.68,-2.6804,-2.6802,-2.6734,0,0,0,0,0,-2.6651,-2.6669,-2.6679,-2.6705,-2.6711,-2.6715,-2.6726,-2.6725,-2.6736,-2.6741,-2.6748,-2.676,-2.6778,-2.6789,-2.6806,-2.6839,-2.6842,-2.6854,-2.6858,-2.6861,-2.6865,-2.6883,-2.6889,-2.6828,-2.6828,-2.6828,0,0,-2.6666,-2.6674,-2.6686,-2.6708,-2.6717,-2.6736,-2.672,-2.674,-2.6754,-2.6744,-2.6771,-2.6777,-2.679,-2.682,-2.6834,-2.6826,-2.6882,-2.6864,-2.6867,-2.6869,-2.6887,-2.6893,-2.6898,-2.683,-2.683,-2.6829,0,0,-2.6701,-2.671,-2.6733,-2.6742,-2.6756,-2.6759,-2.6765,-2.6777,-2.6781,-2.6807,-2.6801,-2.6818,-2.6847,-2.6857,-2.6866,-2.6908,-2.6902,-2.6913,-2.6934,-2.6953,-2.6958,-2.6962,-2.6978,-2.6983,-2.6916,-2.6916,-2.6916,0,-2.6717,-2.6746,-2.6745,-2.6767,-2.6777,-2.677,-2.6793,-2.6802,-2.6821,-2.6828,-2.6819,-2.6857,-2.6866,-2.6899,-2.6909,-2.6916,-2.6923,-2.6911,-2.6957,-2.6961,-2.6965,-2.698,-2.6986,-2.6918,-2.6918,-2.6917,-2.6917,0,-2.6765,-2.6785,-2.6802,-2.682,-2.6833,-2.6855,-2.6858,-2.6871,-2.6869,-2.6873,-2.6901,-2.6911,-2.693,-2.6938,-2.6936,-2.6971,-2.6966,-2.6957,-2.694,-2.6973,-2.6986,-2.6992,-2.692,-2.6919,-2.6919,-2.6918,0,0,-2.6811,-2.683,-2.6836,-2.6845,-2.686,-2.6875,-2.6898,-2.6916,-2.6927,-2.6941,-2.696,-2.6986,-2.6978,-2.6989,-2.6988,-2.7004,-2.7037,-2.6993,-2.6994,-2.7002,-2.7078,-2.7085,-2.7091,-2.7034,-2.7035,-2.7035,-2.7077,0,-2.6848,-2.6887,-2.6888,-2.6924,-2.6943,-2.6937,-2.6956,-2.6968,-2.6973,-2.699,-2.6995,-2.7014,-2.7002,-2.7008,-2.7024,-2.703,-2.7053,-2.7027,-2.7052,-2.7053,-2.7049,-2.7099,-2.7106,-2.7145,-2.7082,-2.7083,-2.7084,0,-2.6897,-2.6912,-2.695,-2.6964,-2.6972,-2.699,-2.7007,-2.7023,-2.7037,-2.7039,-2.7052,-2.7049,-2.7072,-2.7055,-2.7088,-2.7071,-2.7081,-2.7086,-2.7087,-2.709,-2.7071,-2.7103,-2.7157,-2.7163,-2.7092,-2.7092,-2.7091,0,-2.6927,-2.6957,-2.6984,-2.6992,-2.7008,-2.7021,-2.7029,-2.7041,-2.7053,-2.7069,-2.7076,-2.7094,-2.7104,-2.7119,-2.7122,-2.7109,-2.7155,-2.7138,-2.7158,-2.7158,-2.7168,-2.7168,-2.7225,-2.7174,-2.7174,-2.7174,-2.7174,0,-2.6969,-2.6993,-2.6998,-2.7015,-2.7042,-2.7043,-2.7069,-2.7076,-2.7087,-2.7106,-2.7101,-2.7118,-2.7121,-2.7139,-2.7141,-2.7169,-2.7173,-2.7176,-2.7176,-2.7177,-2.7176,-2.7184,-2.7181,-2.7175,-2.7175,-2.7175,-2.7175,0,-2.7007,-2.7012,-2.7041,-2.7055,-2.7059,-2.7078,-2.709,-2.7106,-2.711,-2.7134,-2.7139,-2.7147,-2.7168,-2.7172,-2.7197,-2.7198,-2.7231,-2.7229,-2.7227,-2.7227,-2.7247,-2.7246,-2.7312,-2.7321,-2.7263,-2.7264,-2.7264,0,-2.7034,-2.7052,-2.7068,-2.708,-2.7088,-2.7107,-2.712,-2.7122,-2.7134,-2.7152,-2.7166,-2.7187,-2.7204,-2.7238,-2.7246,-2.7265,-2.7263,-2.7285,-2.7266,-2.7266,-2.7265,-2.7264,-2.7266,-2.7289,-2.729,-2.729,-2.7291,0,-2.7081,-2.7083,-2.71,-2.7119,-2.7134,-2.7149,-2.7163,-2.7173,-2.7177,-2.7192,-2.7213,-2.7226,-2.7252,-2.7273,-2.7293,-2.7301,-2.7297,-2.7297,-2.7302,-2.7303,-2.7302,-2.7304,-2.7237,-2.7295,-2.7295,-2.7294,-2.7294,-2.7294,-2.7115,-2.7131,-2.7145,-2.7165,-2.7176,-2.719,-2.7206,-2.7213,-2.7231,-2.7253,-2.7253,-2.7277,-2.7291,-2.7317,-2.7327,-2.7346,-2.7339,-2.7347,-2.7349,-2.7352,-2.7354,-2.7298,-2.7349,-2.7349,-2.7349,-2.7349,-2.7349,0,-2.7162,-2.7171,-2.719,-2.721,-2.7226,-2.7221,-2.7236,-2.725,-2.7272,-2.7285,-2.7302,-2.7328,-2.7348,-2.7358,-2.7379,-2.7393,-2.7391,-2.7398,-2.7397,-2.7399,-2.7358,-2.7352,-2.7399,-2.7399,-2.7399,-2.7399,-2.7399,-2.7399,-2.7189,-2.7217,-2.722,-2.7254,-2.7262,-2.7286,-2.7296,-2.7309,-2.732,-2.7349,-2.7366,-2.7372,-2.7385,-2.7406,-2.7426,-2.7428,-2.7436,-2.7444,-2.7446,-2.7407,-2.7402,-2.7397,-2.7391,-2.7446,-2.7446,-2.7485,-2.7485,-2.7486]}]]